| time (UTC) | temp F | wind direction | speed MPH | gust MPH | rain 1hr in | rain 24hr in | rain mn in | humidity % | barometer mb |
| 20260506184533 | 55 | 58 | 1.0 | 3.0 | 0.00 | 0.00 | 0.00 | 63 | 1012.4 |
| 20260506183519 | 55 | 169 | 0.0 | 2.0 | 0.00 | 0.00 | 0.00 | 62 | 1012.2 |
| 20260506182555 | 55 | 50 | 0.0 | 2.0 | 0.00 | 0.00 | 0.00 | 62 | 1012.2 |
| 20260506181536 | 55 | 170 | 1.0 | 2.0 | 0.00 | 0.00 | 0.00 | 62 | 1012.0 |
| 20260506180521 | 56 | 71 | 1.0 | 4.0 | 0.00 | 0.00 | 0.00 | 62 | 1011.8 |
| 20260506175606 | 56 | 65 | 1.0 | 4.0 | 0.00 | 0.00 | 0.00 | 63 | 1011.7 |
| 20260506174604 | 56 | 96 | 1.0 | 2.0 | 0.00 | 0.00 | 0.00 | 65 | 1011.5 |
| 20260506173526 | 56 | 149 | 0.0 | 2.0 | 0.00 | 0.00 | 0.00 | 65 | 1011.2 |
| 20260506172608 | 57 | 21 | 1.0 | 2.0 | 0.00 | 0.00 | 0.00 | 63 | 1011.2 |
| 20260506171601 | 57 | 87 | 1.0 | 3.0 | 0.00 | 0.00 | 0.00 | 64 | 1011.1 |
| 20260506170522 | 57 | 322 | 2.0 | 8.0 | 0.00 | 0.00 | 0.00 | 69 | 1011.1 |
| 20260506165605 | 57 | 338 | 5.0 | 11.0 | 0.00 | 0.00 | 0.00 | 68 | 1011.0 |
| 20260506164612 | 58 | 341 | 7.0 | 11.0 | 0.00 | 0.00 | 0.00 | 66 | 1011.0 |
| 20260506163554 | 57 | 327 | 5.0 | 8.0 | 0.00 | 0.00 | 0.00 | 68 | 1010.8 |
| 20260506162616 | 57 | 321 | 4.0 | 8.0 | 0.00 | 0.00 | 0.00 | 69 | 1011.0 |
| 20260506161638 | 56 | 336 | 5.0 | 8.0 | 0.00 | 0.00 | 0.00 | 70 | 1011.0 |
| 20260506160533 | 56 | 328 | 4.0 | 8.0 | 0.00 | 0.00 | 0.00 | 70 | 1011.0 |
| 20260506155615 | 56 | 330 | 4.0 | 7.0 | 0.00 | 0.00 | 0.00 | 68 | 1011.0 |
| 20260506154555 | 56 | 319 | 2.0 | 3.0 | 0.00 | 0.00 | 0.00 | 64 | 1011.1 |
| 20260506153540 | 57 | 331 | 1.0 | 4.0 | 0.00 | 0.00 | 0.00 | 63 | 1010.9 |
| 20260506152523 | 56 | 96 | 1.0 | 7.0 | 0.00 | 0.00 | 0.00 | 62 | 1011.0 |
| 20260506151607 | 57 | 172 | 1.0 | 3.0 | 0.00 | 0.00 | 0.00 | 63 | 1011.0 |
| 20260506150539 | 57 | 60 | 2.0 | 10.0 | 0.00 | 0.00 | 0.00 | 68 | 1010.9 |
| 20260506145518 | 57 | 305 | 2.0 | 7.0 | 0.00 | 0.00 | 0.00 | 70 | 1010.9 |
| 20260506144602 | 57 | 325 | 3.0 | 7.0 | 0.00 | 0.00 | 0.00 | 72 | 1010.8 |
| 20260506143606 | 56 | 331 | 3.0 | 8.0 | 0.00 | 0.00 | 0.00 | 73 | 1010.9 |
| 20260506142522 | 56 | 356 | 5.0 | 10.0 | 0.00 | 0.00 | 0.00 | 74 | 1010.9 |
| 20260506141605 | 56 | 345 | 4.0 | 8.0 | 0.00 | 0.00 | 0.00 | 74 | 1010.9 |
| 20260506140546 | 56 | 3 | 3.0 | 8.0 | 0.00 | 0.00 | 0.00 | 74 | 1010.8 |
| 20260506135548 | 56 | 332 | 5.0 | 13.0 | 0.00 | 0.00 | 0.00 | 74 | 1011.0 |
| 20260506134607 | 57 | 338 | 3.0 | 6.0 | 0.00 | 0.00 | 0.00 | 73 | 1010.9 |
| 20260506133546 | 58 | 337 | 6.0 | 11.0 | 0.00 | 0.00 | 0.00 | 74 | 1010.9 |
| 20260506132530 | 58 | 332 | 7.0 | 11.0 | 0.00 | 0.00 | 0.00 | 73 | 1010.8 |
| 20260506131613 | 58 | 343 | 9.0 | 16.0 | 0.00 | 0.00 | 0.00 | 71 | 1010.8 |
| 20260506130551 | 58 | 346 | 7.0 | 13.0 | 0.00 | 0.00 | 0.00 | 71 | 1010.7 |
| 20260506125536 | 58 | 344 | 11.0 | 16.0 | 0.00 | 0.00 | 0.00 | 70 | 1010.6 |
| 20260506124611 | 59 | 340 | 6.0 | 13.0 | 0.00 | 0.00 | 0.00 | 68 | 1010.5 |
| 20260506123549 | 58 | 321 | 9.0 | 15.0 | 0.00 | 0.00 | 0.00 | 71 | 1010.5 |
| 20260506122537 | 58 | 325 | 5.0 | 14.0 | 0.00 | 0.00 | 0.00 | 71 | 1010.6 |
| 20260506121613 | 58 | 323 | 8.0 | 13.0 | 0.00 | 0.00 | 0.00 | 70 | 1010.5 |
| 20260506120549 | 58 | 334 | 6.0 | 13.0 | 0.00 | 0.00 | 0.00 | 71 | 1010.5 |
| 20260506115600 | 57 | 341 | 4.0 | 7.0 | 0.00 | 0.00 | 0.00 | 75 | 1010.6 |
| 20260506114540 | 55 | 339 | 4.0 | 8.0 | 0.00 | 0.00 | 0.00 | 76 | 1010.7 |
| 20260506113600 | 56 | 329 | 3.0 | 8.0 | 0.00 | 0.00 | 0.00 | 74 | 1010.7 |
| 20260506112544 | 56 | 282 | 1.0 | 7.0 | 0.00 | 0.00 | 0.00 | 73 | 1010.7 |
| 20260506111522 | 56 | 339 | 2.0 | 6.0 | 0.00 | 0.00 | 0.00 | 73 | 1010.6 |
| 20260506110629 | 56 | 348 | 5.0 | 8.0 | 0.00 | 0.00 | 0.00 | 73 | 1010.6 |
| 20260506105608 | 56 | 318 | 4.0 | 8.0 | 0.00 | 0.00 | 0.00 | 73 | 1010.6 |
| 20260506104530 | 56 | 338 | 4.0 | 8.0 | 0.00 | 0.00 | 0.00 | 75 | 1010.6 |
| 20260506103520 | 56 | 323 | 5.0 | 9.0 | 0.00 | 0.00 | 0.00 | 75 | 1010.7 |
| 20260506102600 | 56 | 348 | 6.0 | 10.0 | 0.00 | 0.00 | 0.00 | 75 | 1010.7 |
| 20260506101545 | 55 | 338 | 3.0 | 9.0 | 0.00 | 0.00 | 0.00 | 77 | 1010.6 |
| 20260506100526 | 55 | 343 | 5.0 | 11.0 | 0.00 | 0.00 | 0.00 | 77 | 1010.6 |
| 20260506095608 | 55 | 335 | 3.0 | 9.0 | 0.00 | 0.00 | 0.00 | 78 | 1010.6 |
| 20260506094544 | 54 | 336 | 4.0 | 8.0 | 0.00 | 0.00 | 0.00 | 81 | 1010.6 |
| 20260506093525 | 54 | 355 | 4.0 | 10.0 | 0.00 | 0.00 | 0.00 | 83 | 1010.5 |
| 20260506092606 | 53 | 339 | 5.0 | 9.0 | 0.00 | 0.00 | 0.00 | 85 | 1010.6 |
| 20260506091552 | 53 | 343 | 6.0 | 11.0 | 0.00 | 0.00 | 0.00 | 85 | 1010.5 |
| 20260506090536 | 53 | 334 | 4.0 | 8.0 | 0.00 | 0.00 | 0.00 | 87 | 1010.5 |
| 20260506085618 | 52 | 337 | 4.0 | 9.0 | 0.00 | 0.00 | 0.00 | 88 | 1010.4 |
| 20260506084555 | 52 | 338 | 7.0 | 9.0 | 0.00 | 0.00 | 0.00 | 89 | 1010.4 |
| 20260506083533 | 51 | 336 | 7.0 | 13.0 | 0.00 | 0.00 | 0.00 | 90 | 1010.4 |
| 20260506082517 | 51 | 330 | 3.0 | 7.0 | 0.00 | 0.00 | 0.00 | 92 | 1010.3 |
| 20260506081557 | 50 | 318 | 4.0 | 7.0 | 0.00 | 0.00 | 0.00 | 92 | 1010.4 |
| 20260506080539 | 50 | 330 | 5.0 | 9.0 | 0.00 | 0.00 | 0.00 | 92 | 1010.3 |
| 20260506072516 | 49 | 312 | 1.0 | 6.0 | 0.00 | 0.00 | 0.00 | 92 | 1010.1 |
| 20260506071602 | 49 | 309 | 2.0 | 8.0 | 0.00 | 0.00 | 0.00 | 92 | 1010.2 |
| 20260506070545 | 49 | 326 | 3.0 | 8.0 | 0.00 | 0.00 | 0.00 | 91 | 1010.1 |
| 20260506061517 | 50 | 343 | 4.0 | 11.0 | 0.00 | 0.00 | 0.00 | 82 | 1009.8 |
| 20260506060615 | 50 | 28 | 4.0 | 9.0 | 0.00 | 0.00 | 0.00 | 80 | 1009.8 |
| 20260506050609 | 50 | 334 | 3.0 | 9.0 | 0.00 | 0.00 | 0.00 | 78 | 1009.6 |
| 20260506044539 | 50 | 340 | 3.0 | 7.0 | 0.00 | 0.00 | 0.00 | 79 | 1009.7 |
| 20260506043527 | 50 | 343 | 5.0 | 9.0 | 0.00 | 0.00 | 0.00 | 80 | 1009.6 |
| 20260506042609 | 49 | 333 | 3.0 | 7.0 | 0.00 | 0.00 | 0.00 | 81 | 1009.6 |
| 20260506041552 | 49 | 328 | 3.0 | 8.0 | 0.00 | 0.00 | 0.00 | 81 | 1009.6 |
| 20260506040537 | 49 | 3 | 3.0 | 7.0 | 0.00 | 0.00 | 0.00 | 81 | 1009.6 |
| 20260506035525 | 49 | 340 | 4.0 | 8.0 | 0.00 | 0.00 | 0.00 | 81 | 1009.8 |
| 20260506034609 | 49 | 335 | 5.0 | 8.0 | 0.00 | 0.00 | 0.00 | 81 | 1009.8 |
| 20260506033608 | 49 | 339 | 5.0 | 7.0 | 0.00 | 0.00 | 0.00 | 81 | 1009.8 |
| 20260506032609 | 49 | 339 | 3.0 | 7.0 | 0.00 | 0.00 | 0.00 | 80 | 1009.8 |
| 20260506031616 | 48 | 354 | 3.0 | 9.0 | 0.00 | 0.00 | 0.00 | 81 | 1009.8 |
| 20260506030559 | 48 | 330 | 3.0 | 6.0 | 0.00 | 0.00 | 0.00 | 81 | 1009.8 |
| 20260506025543 | 48 | 328 | 2.0 | 6.0 | 0.00 | 0.00 | 0.00 | 81 | 1010.2 |
| 20260506024541 | 48 | 338 | 4.0 | 7.0 | 0.00 | 0.00 | 0.00 | 82 | 1010.0 |
| 20260506023607 | 48 | 338 | 3.0 | 8.0 | 0.00 | 0.00 | 0.00 | 82 | 1010.0 |
| 20260506022546 | 48 | 339 | 3.0 | 6.0 | 0.00 | 0.00 | 0.00 | 82 | 1010.1 |
| 20260506021526 | 48 | 327 | 2.0 | 7.0 | 0.00 | 0.00 | 0.00 | 82 | 1010.2 |
| 20260506020605 | 48 | 345 | 1.0 | 7.0 | 0.00 | 0.00 | 0.00 | 82 | 1010.1 |
| 20260506015553 | 48 | 344 | 3.0 | 7.0 | 0.00 | 0.00 | 0.00 | 82 | 1010.2 |
| 20260506014528 | 48 | 308 | 2.0 | 6.0 | 0.00 | 0.00 | 0.00 | 82 | 1010.3 |
| 20260506013605 | 48 | 337 | 3.0 | 6.0 | 0.00 | 0.00 | 0.00 | 82 | 1010.2 |
| 20260506012544 | 48 | 347 | 3.0 | 6.0 | 0.00 | 0.00 | 0.00 | 83 | 1010.3 |
| 20260506011527 | 48 | 335 | 4.0 | 7.0 | 0.00 | 0.00 | 0.00 | 82 | 1010.3 |
| 20260506010611 | 48 | 329 | 2.0 | 7.0 | 0.00 | 0.00 | 0.00 | 82 | 1010.3 |
| 20260506005557 | 48 | 344 | 2.0 | 6.0 | 0.00 | 0.00 | 0.00 | 81 | 1010.4 |
| 20260506004543 | 48 | 313 | 1.0 | 4.0 | 0.00 | 0.00 | 0.00 | 81 | 1010.3 |
| 20260506003602 | 49 | 325 | 2.0 | 6.0 | 0.00 | 0.00 | 0.00 | 81 | 1010.5 |
| 20260506002605 | 49 | 331 | 3.0 | 7.0 | 0.00 | 0.00 | 0.00 | 81 | 1010.6 |
| 20260506001550 | 49 | 337 | 3.0 | 7.0 | 0.00 | 0.00 | 0.00 | 82 | 1010.7 |
| 20260506000532 | 49 | 309 | 2.0 | 4.0 | 0.00 | 0.00 | 0.00 | 82 | 1010.7 |
| 20260505235520 | 49 | 329 | 3.0 | 6.0 | 0.00 | 0.00 | 0.00 | 82 | 1010.7 |
| 20260505234607 | 50 | 328 | 3.0 | 4.0 | 0.00 | 0.00 | 0.00 | 82 | 1010.7 |
| 20260505233540 | 50 | 283 | 2.0 | 7.0 | 0.00 | 0.00 | 0.00 | 82 | 1010.7 |
| 20260505232524 | 50 | 324 | 2.0 | 8.0 | 0.00 | 0.00 | 0.00 | 82 | 1010.8 |
| 20260505231603 | 50 | 261 | 2.0 | 4.0 | 0.00 | 0.00 | 0.00 | 82 | 1010.8 |
| 20260505230611 | 50 | 355 | 2.0 | 3.0 | 0.00 | 0.00 | 0.00 | 82 | 1010.8 |
| 20260505225535 | 50 | 322 | 1.0 | 3.0 | 0.00 | 0.00 | 0.00 | 81 | 1010.9 |
| 20260505224631 | 50 | 270 | 0.0 | 7.0 | 0.00 | 0.00 | 0.00 | 80 | 1010.9 |
| 20260505223659 | 50 | 285 | 0.0 | 3.0 | 0.00 | 0.00 | 0.00 | 80 | 1010.9 |
| 20260505222543 | 51 | 210 | 0.0 | 2.0 | 0.00 | 0.00 | 0.00 | 79 | 1010.9 |
| 20260505221547 | 51 | 298 | 0.0 | 2.0 | 0.00 | 0.00 | 0.00 | 78 | 1010.9 |
| 20260505220606 | 51 | 94 | 0.0 | 4.0 | 0.00 | 0.00 | 0.00 | 78 | 1010.9 |
| 20260505215548 | 51 | 92 | 1.0 | 3.0 | 0.00 | 0.00 | 0.00 | 79 | 1010.9 |
| 20260505214527 | 51 | 219 | 0.0 | 4.0 | 0.00 | 0.00 | 0.00 | 79 | 1011.0 |
| 20260505213601 | 51 | 70 | 1.0 | 7.0 | 0.00 | 0.00 | 0.00 | 81 | 1011.0 |
| 20260505212539 | 51 | 305 | 0.0 | 1.0 | 0.00 | 0.00 | 0.00 | 81 | 1011.0 |
| 20260505211526 | 52 | 45 | 0.0 | 2.0 | 0.00 | 0.00 | 0.00 | 81 | 1011.0 |
| 20260505210615 | 52 | 214 | 0.0 | 4.0 | 0.00 | 0.00 | 0.00 | 81 | 1010.9 |
| 20260505205601 | 52 | 289 | 1.0 | 3.0 | 0.00 | 0.00 | 0.00 | 80 | 1011.0 |
| 20260505204545 | 52 | 273 | 1.0 | 3.0 | 0.00 | 0.00 | 0.00 | 80 | 1011.0 |
| 20260505203521 | 53 | 351 | 2.0 | 6.0 | 0.00 | 0.00 | 0.00 | 80 | 1010.9 |
| 20260505202624 | 53 | 271 | 1.0 | 4.0 | 0.00 | 0.00 | 0.00 | 80 | 1010.8 |
| 20260505201544 | 53 | 336 | 2.0 | 4.0 | 0.00 | 0.00 | 0.00 | 80 | 1010.7 |
| 20260505200529 | 53 | 347 | 2.0 | 7.0 | 0.00 | 0.00 | 0.00 | 80 | 1010.7 |
| 20260505195614 | 53 | 219 | 1.0 | 4.0 | 0.00 | 0.00 | 0.00 | 79 | 1010.5 |
| 20260505194545 | 54 | 327 | 2.0 | 11.0 | 0.00 | 0.00 | 0.00 | 78 | 1010.6 |
| 20260505193531 | 54 | 327 | 3.0 | 7.0 | 0.00 | 0.00 | 0.00 | 78 | 1010.5 |
| 20260505192607 | 54 | 304 | 1.0 | 6.0 | 0.00 | 0.00 | 0.00 | 77 | 1010.4 |
| 20260505191544 | 54 | 330 | 4.0 | 9.0 | 0.00 | 0.00 | 0.00 | 77 | 1010.4 |
| 20260505190532 | 54 | 332 | 2.0 | 9.0 | 0.00 | 0.00 | 0.00 | 77 | 1010.3 |
| 20260505185615 | 55 | 351 | 3.0 | 9.0 | 0.00 | 0.00 | 0.00 | 76 | 1010.2 |